Showing default

PRAETORIAN SDA_621, 65584

Orbit data source: Space-Track

PRAETORIAN SDA_621, 65584 is a payload satellite owned by SDA (US) in LEO that was launched on Wed, 10 Sep 2025 UTC via an FALCON 9 launch vehicle from the Air Force Western Test Range (AFWTR). Payload-class satellites include a variety of spacecraft equipped with specific instruments for various scientific and technological missions. These include communications satellites like Starlink; space stations such as the ISS; scientific satellites like the Hubble; Earth observation satellites from companies like Planet Labs, Umbra, and HawkEye 360; GPS; miniature CubeSats for education and research; and military/defense satellites.

Loading next visibility...
Identifier
65584, 2025-203V
Orbit
LEO
Country
Flag of USUS
Related business
Manufacturer
York Space Sys
Mission
Operational Defense Communications
Bus & Motor
S-CLASS, Unknown motor
Mass
~300 kg wet, ~300 kg dry
Launch date (UTC)
2025-09-10 (9 months ago)
Launch vehicle
FALCON 9
Launch site
Air Force Western Test Range (AFWTR)
Object type
Payload
Rocket body
Debris
Shape & HBR
Box + 4 Pan, 14.5 m
Radar Cross Section
1.244 m², Large (>1 m²)

Expand to show TLE details & history
Last TLE update: 14 hours ago

TLE from 14 hours ago
0 PRAETORIAN SDA_621
1 65584U 25203V   26171.26961720  .00000043  00000-0  27910-4 0  9990
2 65584  81.3020   7.8711 0007532 170.2935 189.8368 13.83801503 39122
Epoch: 2026-06-20T06:28Z
TLE epoch observation values (Epoch: 2026-06-20T06:28:14.926Z)
Latitude
-0.00004°
Longitude
2.32224°
Altitude
958.739 km
Speed
7.37 km/s
True Right ascension
00h 31m 29s
True Declination
0° 00' 00"
Sunlit
Object was in daylight at epoch
Visualization orbit readout
Latitude
Unknown
Longitude
Unknown
Altitude
Unknown
Speed
Unknown
Apparent Right ascension
Unknown
Apparent Declination
Unknown
Sunlit
N/A
Visualization observer readout
Local Sidereal Time
07:13:01
Azimuth
Unknown
Elevation
Unknown
Doppler factor
Unknown
Orbital elements
Apogee altitude
953.159 km
Perigee altitude
942.123 km
Semi-major axis
7,325.778 km
Eccentricity
0.00075
Inclination
81.302°
RAAN
7.8711°
Arg. of periapsis
170.2935°
True anomaly
189.82207°
Mean anomaly
189.8368°
Eccentric anomaly
189.82943°
Mean motion
3.46149 °/min
Orbital period
104 mins
BSTAR
0.00002791
Loading maneuver chart data...
Computing Atmospheric mass density...
Loading historical data...
Loading historical data...
Loading historical data...
Loading historical data...
Loading historical data...
Loading historical data...
Loading historical data...

Documentation

Showing up to 5 results
|